map of YYQ home
YYQ - Airport
Location
City:  Churchill, Manitoba, Canada
Name:Churchill Airport
ICAO:CYYQ
IATA:YYQ

Details
Type:Airport (Airfield)
Use:Public/Civil
Latitude:5844'21"N (58.739167)
Longitude:9403'59"W (-94.066388)
Elevation:96 ft (29 m)
Variation:1.77W (WMM2015v2 magnetic declination)
0.08 annual change
Runways:2
Longest:9195 ft (2803 m), paved

Time
Time Zone:UTC-6 (DST-5)
Local Time:

Weather
METAR:CYYQ 041400Z 30014KT 15SM IC DRSN FEW014 SCT220 M33/M37 A3026 RMK ST2CI2 SLP255
TAF:CYYQ 041143Z 0412/0512 30015KT 4SM -SN IC BKN008
TEMPO 0412/0512 6SM IC SCT010
RMK NXT FCST BY 041800Z

Related Locations
Nearby:
Farthest:YWKS: 11462 mi / 18447 km
Wilkins Runway (Casey), Upper Peterson Glacier, AQ

Find:

   beyond  
but within

Other Information
Maps:
NOTAMs:
Links:
Sources:

  
  • flag of Canada
  • flag of Manitoba
  

Airport Diagram

Airport diagram for YYQ

Airport diagram PDF

Sectional Chart

Flight Planning
at skyvector.com

Satellite Image

Google Maps Satellite view

 

Copyright © 2004-2019 Karl L. Swartz. All rights reserved.
The Great Circle Mapper name and logo are trademarks of the Great Circle Mapper.
All other trademarks mentioned herein belong to their respective owners.
Please see credits for attibutions and further copyright information.

  Follow gcmap on Facebook Follow gcmap on Twitter GCmap on LinkedIn

hCard Microformat

Geo Microformat